Location: Équennes
(49.7375°N, 1.9622°E)
Time: 19:18:00
(UTC+00:00)

Cosmos 2278 - Pass Details

Date: 28 September 2023
Orbit: 838 x 853 km, 71.1° (Epoch: 08 December)

Event Time Altitude Azimuth Distance (km) Brightness Sun altitude
Rises 19:42:03 0° 278° (W) 3,406 8.3 -20.5°
Reaches altitude 10° 19:45:59 10° 305° (NW) 2,478 7.3 -21.1°
Maximum altitude 19:48:39 13° 333° (NNW) 2,254 6.6 -21.5°
Drops below altitude 10° 19:51:19 10° 1° (N) 2,486 6.4 -21.9°
Sets 19:55:17 0° 28° (NNE) 3,428 6.8 -22.4°
